When you browse on this site, cookies collect data to enhance your experience and personalize the content and advertising you see.
Visit our Privacy Policy to learn more. By continuing to use the site, you agree to this use of cookies and data.
  • în România
  • Lista ţărilor
  • Pe 7 zile
  • Temperatura apei
  • Hartă satelitară
  • Meteo pe hartă
  • Widget-uri
  • user-avatar
    Intrare

    Meteo pe oră la Haro

    Astăzi, 16 Iulie, Marţi

    Timp Temperatura Precipitaţii Vânt Presiune Umiditate
    00:00 +14°C° 0 mm 1 m/s 721 mmHg 76%
    01:00 +13°C° 0 mm 1 m/s 721 mmHg 77%
    02:00 +13°C° 0 mm 1 m/s 721 mmHg 78%
    03:00 +12°C° 0 mm 1 m/s 721 mmHg 79%
    04:00 +12°C° 0 mm 0 m/s 721 mmHg 77%
    05:00 +13°C° 0 mm 0 m/s 721 mmHg 75%
    06:00 +13°C° 0 mm 0 m/s 721 mmHg 73%
    07:00 +18°C° 0 mm 1 m/s 721 mmHg 66%
    08:00 +20°C° 0 mm 1 m/s 721 mmHg 59%
    09:00 +23°C° 0 mm 1 m/s 721 mmHg 52%
    10:00 +24°C° 0 mm 1 m/s 721 mmHg 48%
    11:00 +26°C° 0 mm 2 m/s 721 mmHg 43%
    12:00 +28°C° 0 mm 2 m/s 721 mmHg 38%
    13:00 +29°C° 0 mm 2 m/s 721 mmHg 37%
    14:00 +29°C° 0 mm 2 m/s 721 mmHg 37%
    15:00 +30°C° 0 mm 3 m/s 721 mmHg 36%
    16:00 +28°C° 0 mm 3 m/s 720 mmHg 43%
    17:00 +27°C° 0 mm 3 m/s 720 mmHg 50%
    18:00 +26°C° 0 mm 3 m/s 720 mmHg 57%
    19:00 +24°C° 0 mm 3 m/s 720 mmHg 64%
    20:00 +21°C° 0 mm 2 m/s 720 mmHg 71%
    21:00 +20°C° 0 mm 1 m/s 720 mmHg 78%
    22:00 +19°C° 0 mm 1 m/s 720 mmHg 81%
    23:00 +19°C° 0 mm 1 m/s 720 mmHg 84%

    Mâine, 17 Iulie, Miercuri

    Timp Temperatura Precipitaţii Vânt Presiune Umiditate
    00:00 +18°C° 0 mm 1 m/s 720 mmHg 86%
    01:00 +16°C° 0.1 mm 1 m/s 720 mmHg 88%
    02:00 +16°C° 0.1 mm 1 m/s 720 mmHg 90%
    03:00 +15°C° 0.1 mm 1 m/s 720 mmHg 92%
    04:00 +16°C° 0.1 mm 1 m/s 720 mmHg 90%
    05:00 +16°C° 0.1 mm 1 m/s 720 mmHg 89%
    06:00 +16°C° 0.1 mm 1 m/s 720 mmHg 87%
    07:00 +19°C° 0 mm 1 m/s 720 mmHg 79%
    08:00 +20°C° 0 mm 2 m/s 720 mmHg 71%
    09:00 +23°C° 0 mm 2 m/s 720 mmHg 63%
    10:00 +25°C° 0 mm 2 m/s 720 mmHg 58%
    11:00 +26°C° 0 mm 2 m/s 720 mmHg 54%
    12:00 +28°C° 0 mm 3 m/s 720 mmHg 49%
    13:00 +29°C° 0.1 mm 3 m/s 720 mmHg 49%
    14:00 +29°C° 0.1 mm 4 m/s 720 mmHg 48%
    15:00 +30°C° 0.1 mm 5 m/s 720 mmHg 47%
    16:00 +28°C° 0 mm 5 m/s 720 mmHg 52%
    17:00 +26°C° 0 mm 5 m/s 720 mmHg 58%
    18:00 +23°C° 0 mm 4 m/s 720 mmHg 63%
    19:00 +21°C° 0 mm 4 m/s 720 mmHg 72%
    20:00 +19°C° 0 mm 3 m/s 720 mmHg 80%
    21:00 +16°C° 0 mm 2 m/s 721 mmHg 89%
    22:00 +16°C° 0 mm 1 m/s 720 mmHg 91%
    23:00 +15°C° 0 mm 1 m/s 720 mmHg 92%

    Poimâine, 18 Iulie, Joi

    Timp Temperatura Precipitaţii Vânt Presiune Umiditate
    00:00 +15°C° 0 mm 1 m/s 720 mmHg 94%
    01:00 +15°C° 0 mm 1 m/s 720 mmHg 94%
    02:00 +15°C° 0 mm 1 m/s 720 mmHg 95%
    03:00 +14°C° 0 mm 1 m/s 720 mmHg 95%
    04:00 +15°C° 0 mm 1 m/s 720 mmHg 92%
    05:00 +16°C° 0 mm 1 m/s 720 mmHg 90%
    06:00 +16°C° 0 mm 1 m/s 720 mmHg 88%
    07:00 +18°C° 0 mm 1 m/s 720 mmHg 81%
    08:00 +20°C° 0 mm 1 m/s 720 mmHg 75%
    09:00 +20°C° 0 mm 2 m/s 721 mmHg 68%
    10:00 +23°C° 0 mm 2 m/s 721 mmHg 62%
    11:00 +24°C° 0 mm 3 m/s 721 mmHg 56%
    12:00 +26°C° 0 mm 3 m/s 721 mmHg 50%
    13:00 +27°C° 0 mm 4 m/s 720 mmHg 50%
    14:00 +27°C° 0 mm 4 m/s 720 mmHg 49%
    15:00 +28°C° 0 mm 5 m/s 720 mmHg 48%
    16:00 +26°C° 0 mm 4 m/s 720 mmHg 52%
    17:00 +25°C° 0 mm 4 m/s 720 mmHg 56%
    18:00 +22°C° 0 mm 4 m/s 720 mmHg 60%
    19:00 +20°C° 0 mm 3 m/s 720 mmHg 69%
    20:00 +18°C° 0 mm 2 m/s 721 mmHg 78%
    21:00 +16°C° 0 mm 1 m/s 721 mmHg 86%
    22:00 +15°C° 0 mm 1 m/s 721 mmHg 88%
    23:00 +14°C° 0 mm 1 m/s 721 mmHg 89%

    19 Iulie, Vineri

    Timp Temperatura Precipitaţii Vânt Presiune Umiditate
    00:00 +14°C° 0 mm 1 m/s 721 mmHg 91%
    01:00 +13°C° 0 mm 1 m/s 720 mmHg 91%
    02:00 +13°C° 0 mm 1 m/s 720 mmHg 90%
    03:00 +13°C° 0 mm 1 m/s 720 mmHg 90%
    04:00 +13°C° 0 mm 1 m/s 720 mmHg 88%
    05:00 +14°C° 0 mm 1 m/s 720 mmHg 86%
    06:00 +14°C° 0 mm 1 m/s 720 mmHg 84%
    07:00 +18°C° 0 mm 1 m/s 720 mmHg 72%
    08:00 +20°C° 0 mm 1 m/s 720 mmHg 60%
    09:00 +23°C° 0 mm 1 m/s 721 mmHg 48%
    10:00 +25°C° 0 mm 2 m/s 720 mmHg 43%
    11:00 +27°C° 0 mm 2 m/s 720 mmHg 38%
    12:00 +29°C° 0 mm 2 m/s 720 mmHg 33%
    13:00 +30°C° 0 mm 3 m/s 720 mmHg 32%
    14:00 +31°C° 0 mm 3 m/s 720 mmHg 32%
    15:00 +33°C° 0 mm 3 m/s 719 mmHg 32%
    16:00 +31°C° 0 mm 3 m/s 719 mmHg 37%
    17:00 +30°C° 0 mm 3 m/s 719 mmHg 41%
    18:00 +29°C° 0 mm 3 m/s 719 mmHg 46%
    19:00 +26°C° 0 mm 2 m/s 719 mmHg 57%
    20:00 +23°C° 0 mm 2 m/s 719 mmHg 68%
    21:00 +21°C° 0 mm 1 m/s 719 mmHg 80%
    22:00 +20°C° 0 mm 1 m/s 719 mmHg 83%
    23:00 +19°C° 0 mm 1 m/s 719 mmHg 87%

    20 Iulie, Sâmbătă

    Timp Temperatura Precipitaţii Vânt Presiune Umiditate
    00:00 +18°C° 0 mm 1 m/s 719 mmHg 90%
    01:00 +18°C° 0 mm 1 m/s 719 mmHg 91%
    02:00 +16°C° 0 mm 1 m/s 719 mmHg 93%
    03:00 +16°C° 0 mm 1 m/s 719 mmHg 94%
    04:00 +16°C° 0 mm 1 m/s 719 mmHg 93%
    05:00 +18°C° 0 mm 1 m/s 719 mmHg 92%
    06:00 +18°C° 0 mm 1 m/s 719 mmHg 91%
    07:00 +20°C° 0 mm 1 m/s 720 mmHg 84%
    08:00 +22°C° 0 mm 1 m/s 720 mmHg 77%
    09:00 +24°C° 0 mm 1 m/s 720 mmHg 70%
    10:00 +26°C° 0 mm 2 m/s 720 mmHg 64%
    11:00 +28°C° 0 mm 2 m/s 721 mmHg 57%
    12:00 +30°C° 0 mm 3 m/s 721 mmHg 51%
    13:00 +31°C° 0 mm 3 m/s 721 mmHg 50%
    14:00 +32°C° 0 mm 4 m/s 721 mmHg 48%
    15:00 +33°C° 0 mm 4 m/s 721 mmHg 46%
    16:00 +32°C° 0 mm 4 m/s 720 mmHg 52%
    17:00 +29°C° 0 mm 4 m/s 720 mmHg 58%
    18:00 +27°C° 0 mm 4 m/s 720 mmHg 63%
    19:00 +25°C° 0 mm 3 m/s 721 mmHg 72%
    20:00 +23°C° 0 mm 2 m/s 721 mmHg 81%
    21:00 +20°C° 0 mm 1 m/s 722 mmHg 91%
    22:00 +20°C° 0.1 mm 1 m/s 722 mmHg 92%
    23:00 +19°C° 0.1 mm 1 m/s 722 mmHg 94%

    21 Iulie, Duminică

    Timp Temperatura Precipitaţii Vânt Presiune Umiditate
    00:00 +19°C° 0.1 mm 1 m/s 722 mmHg 95%
    01:00 +19°C° 0 mm 1 m/s 721 mmHg 95%
    02:00 +19°C° 0 mm 1 m/s 721 mmHg 95%
    03:00 +19°C° 0 mm 1 m/s 721 mmHg 95%
    04:00 +19°C° 0.1 mm 1 m/s 721 mmHg 94%
    05:00 +19°C° 0.1 mm 1 m/s 721 mmHg 93%
    06:00 +20°C° 0.1 mm 1 m/s 721 mmHg 92%
    07:00 +21°C° 0.2 mm 1 m/s 721 mmHg 86%
    08:00 +23°C° 0.2 mm 1 m/s 722 mmHg 79%
    09:00 +24°C° 0.2 mm 1 m/s 722 mmHg 72%
    10:00 +26°C° 0.5 mm 2 m/s 722 mmHg 65%
    11:00 +28°C° 0.5 mm 2 m/s 722 mmHg 59%
    12:00 +30°C° 0.5 mm 3 m/s 722 mmHg 52%
    13:00 +33°C° 0.1 mm 3 m/s 722 mmHg 48%
    14:00 +34°C° 0.1 mm 4 m/s 721 mmHg 44%
    15:00 +35°C° 0.1 mm 4 m/s 721 mmHg 40%
    16:00 +30°C° 3.1 mm 4 m/s 721 mmHg 53%
    17:00 +26°C° 3.1 mm 4 m/s 721 mmHg 66%
    18:00 +21°C° 3.1 mm 4 m/s 721 mmHg 79%
    19:00 +21°C° 0.5 mm 3 m/s 721 mmHg 81%
    20:00 +20°C° 0.5 mm 2 m/s 722 mmHg 83%
    21:00 +21°C° 0.5 mm 1 m/s 722 mmHg 85%
    22:00 +21°C° 0 mm 1 m/s 722 mmHg 88%
    23:00 +20°C° 0 mm 1 m/s 722 mmHg 91%
    Arată mai mult